Regional Weather Roundup
Issued by NWS

Home | Current Version | Previous Version | Text Only | Print | Product List | Glossary On
Versions: 1 2 3 4 5 6 7 8 9 10 11 12 13 14 15 16 17 18 19 20 21 22 23 24 25 26 27
000
ASUS44 KJAN 192210
RWRMS

MISSISSIPPI HOURLY WEATHER ROUNDUP
NATIONAL WEATHER SERVICE JACKSON MS
400 PM CST THU JAN 19 2017

NOTE: "FAIR: INDICATES FEW OR NO CLOUDS BELOW 12,000 FEET WITH NO
SIGNIFICANT WEATHER AND/OR OBSTRUCTIONS TO VISIBILITY.

MSZ001>002-007>008-010>013-018>021-025>028-034>036-192300-
NORTHWEST MISSISSIPPI

CITY           SKY/WX    TMP DP  RH WIND       PRES   REMARKS
BATESVILLE     RAIN      62  59  92 CALM      29.78R VSB 1
CLARKSDALE     MOSUNNY   63  63 100 S8        29.76S FOG
CLEVELAND      RAIN      60  60 100 SW7       29.77S
GREENWOOD      RAIN      63  60  90 SW8       29.77S FOG
GREENVILLE     LGT RAIN  61  58  90 CALM      29.76F FOG
OXFORD         RAIN      59  59 100 S7        29.78S
TUNICA         LGT RAIN  59  55  88 S9        29.76R
WINONA         LGT RAIN  62  62 100 S5        29.78S
$$

MSZ003>006-009-014>017-022>024-029>033-037>039-192300-
NORTHEAST MISSISSIPPI

CITY           SKY/WX    TMP DP  RH WIND       PRES   REMARKS
COLUMBUS AFB   LGT RAIN  66  66 100 S6        29.80R FOG
CORINTH        LGT RAIN  63  61  94 CALM      29.76S
STARKVILLE     LGT RAIN  63  61  94 S6        29.80S
TUPELO         LGT RAIN  63  60  90 SE3       29.76S
$$

MSZ040-058-192300-
CENTRAL MISSISSIPPI

CITY           SKY/WX    TMP DP  RH WIND       PRES   REMARKS
JACKSON INTL   NOT AVBL
JACKSON HAWKNS LGT RAIN  63  61  93 SE5       29.76F
MADISON        MOCLDY    61  61 100 CALM      29.76F
MERIDIAN KEY   LGT RAIN  66  65  96 S7        29.81R
MERIDIAN NAS   LGT RAIN  66  62  87 SW3       29.81R
RAYMOND        DRIZZLE   63  63 100 W5        29.76F
VICKSBURG VKS  MOCLDY    61  59  94 W8G15     29.80R FOG
$$

MSZ059>079-192300-
SOUTH MISSISSIPPI

CITY           SKY/WX    TMP DP  RH WIND       PRES   REMARKS
BROOKHAVEN     DRIZZLE   64  64 100 CALM      29.79F
HATTIESBURG    HVY RAIN  65  64  97 SE6       29.82S FOG
LAUREL         CLOUDY    64  64 100 CALM      29.82R
MCCOMB         CLOUDY    65  62  90 S6        29.78F
NATCHEZ        CLOUDY    61  57  88 CALM      29.77F
PINE BELT      PTSUNNY   64  61  88 S6        29.82F
$$

MSZ080>082-192300-
COASTAL MISSISSIPPI

CITY           SKY/WX    TMP DP  RH WIND       PRES   REMARKS
BILOXI         CLOUDY    68  66  94 S10       29.81S FOG
PASCAGOULA     CLOUDY    72  68  87 S10       29.82S
GULFPORT       LGT RAIN  69  67  93 S8        29.81R FOG
$$

LAZ007>009-015>016-023>026-192300-
NORTHEAST LOUISIANA

CITY           SKY/WX    TMP DP  RH WIND       PRES   REMARKS
BASTROP        LGT RAIN  59  59  99 SE3       29.69F
TALLULAH/VBURG RAIN      60  59  96 VRB3      29.80R FOG
VIDALIA        LGT RAIN  62  60  93 E6        29.78F
$$




USA.gov is the U.S. government's official web portal to all federal, state and local government web resources and services.